SL-12 R/B(AUX MOTOR), 32281

Orbit data source: Space-Track

SL-12 R/B(AUX MOTOR), 32281 is space debris in HEO originally from a launch on Fri, 26 Oct 2007 UTC launched from the Tyuratam Missile And Space Complex (TTMTR). Debris objects in space refer to the collection of defunct objects orbiting the Earth. Examples of debris include non-operational satellites, rocket bodies, and fragments generated from explosions, collisions, or faulty payload assembly.

Loading next visibility...
Identifier
32281, 2007-052G
Orbit
HEO
Country
Flag of CISCIS
Related business
Manufacturer
RKKE
Mission
Spacecraft
Bus & Motor
SOZ, Unknown motor
Mass
56 kg wet, 56 kg dry
Launch date (UTC)
2007-10-26 (19 years ago)
Launch vehicle
Unknown
Launch site
Tyuratam Missile And Space Complex (TTMTR)
Object type
Payload
Rocket body
Debris
Shape & HBR
Cyl, 0.6 m
Radar Cross Section
0.660 m², Medium (>0.1 m² and < 1m²)

Expand to show TLE details & history
Last TLE update: 21 hours ago

TLE from 21 hours ago
0 SL-12 R/B(AUX MOTOR)
1 32281U 07052G   26125.86583405  .00000037  00000-0  25504-3 0  9994
2 32281  65.1835 314.6683 5700418 203.8215 113.5763  4.23736761286127
Epoch: 2026-05-05T20:46Z
TLE epoch observation values (Epoch: 2026-05-05T20:46:48.061Z)
Latitude
0.00004°
Longitude
139.22591°
Altitude
16,383.309 km
Speed
3.212 km/s
True Right ascension
20h 58m 38s
True Declination
0° 00' 00"
Sunlit
Object was in daylight at epoch
Visualization orbit readout
Latitude
Unknown
Longitude
Unknown
Altitude
Unknown
Speed
Unknown
Apparent Right ascension
Unknown
Apparent Declination
Unknown
Sunlit
N/A
Visualization observer readout
Local Sidereal Time
01:59:59
Azimuth
Unknown
Elevation
Unknown
Doppler factor
Unknown
Orbital elements
Apogee altitude
18,946.972 km
Perigee altitude
557.18 km
Semi-major axis
16,130.213 km
Eccentricity
0.57004
Inclination
65.1835°
RAAN
314.6683°
Arg. of periapsis
203.8215°
True anomaly
156.23273°
Mean anomaly
113.5763°
Eccentric anomaly
136.18752°
Mean motion
1.05946 °/min
Orbital period
339.8 mins
BSTAR
0.00025504
Loading maneuver chart data...
Computing Atmospheric mass density...
Loading historical data...
Loading historical data...
Loading historical data...
Loading historical data...
Loading historical data...
Loading historical data...
Loading historical data...

Documentation

Showing up to 5 results
|